Regional Weather Roundup
Issued by NWS

Home | Current Version | Previous Version | Text Only | Print | Product List | Glossary On
Versions: 1 2 3 4 5 6 7 8 9 10 11 12 13 14 15 16 17 18 19 20 21 22 23 24 25 26 27 28 29 30 31 32 33 34 35 36 37 38 39 40 41 42 43 44 45 46 47 48 49 50
000
ASUS45 KBOU 310807
RWRCO

WEATHER ROUNDUP FOR COLORADO
NATIONAL WEATHER SERVICE DENVER/BOULDER CO
200 AM MDT WED AUG 31 2016

NOTE: "FAIR" INDICATES FEW OR NO CLOUDS BELOW 12000 FEET WITH NO
SIGNIFICANT WEATHER AND/OR OBSTRUCTIONS TO VISIBILITY.

COZ001>005-013-030-031-310900-
...NORTHWEST COLORADO...

CITY           SKY/WX    TMP DP  RH WIND       PRES   REMARKS
CRAIG          FAIR      64  39  39 E10       30.28F
HAYDEN         FAIR      59  37  44 E12       30.31F
MEEKER         FAIR      53  41  63 NE3       30.29F
MOUNT WERNER   NOT AVBL
STEAMBOAT SPGS FAIR      51  39  64 CALM      30.34F
WALDEN         FAIR      37  34  87 E6        30.46F
$$

COZ006>008-011-310900-
...WEST CENTRAL VALLEYS...

CITY           SKY/WX    TMP DP  RH WIND       PRES   REMARKS
GRAND JUNCTION FAIR      68  43  40 E12       30.18R
MONTROSE       FAIR      62  45  53 SE5       30.28S
EAGLE          FAIR      54  43  66 E3        30.37F
RIFLE          FAIR      67  46  47 E9        30.24F
DELTA          FAIR      63  46  54 CALM      30.24R
NUCLA          FAIR     N/A N/A N/A SE7       30.31S
$$

COZ017>023-064>068-310900-
...SOUTHWEST COLORADO...

CITY           SKY/WX    TMP DP  RH WIND       PRES   REMARKS
DURANGO        MOCLDY    57  45  64 E7        30.36R
CORTEZ         CLOUDY    58  51  78 S3        30.28R
PAGOSA SPRINGS CLOUDY    57  43  60 CALM      30.43F
TELLURIDE      FAIR      50  47  87 SE6       30.52S
WOLF CREEK PAS MOCLDY    39  39 100 MISG      30.71S
$$

COZ009-010-012-014-032>034-037-058>063-310900-
...CENTRAL COLORADO...

CITY           SKY/WX    TMP DP  RH WIND       PRES   REMARKS
ASPEN          FAIR      48  41  76 S3        30.41F
BUENA VISTA    FAIR      49  44  81 NW10      30.47F
COPPER MTN     FAIR      45  34  65 S14       30.69S
BERTHOUD PASS  FAIR      37  25  60 SW6       30.71F
COTTONWOOD PAS FAIR      52  41  66 W7        30.58S
GUNNISON       FAIR      52  43  71 N7        30.45F
KREMMLING      FAIR      41  36  81 CALM      30.43F
LEADVILLE      FAIR      37  35  92 S3        30.56F
MONARCH PASS   FOG       41  41 100 E3        30.79S VSB<1/4
SALIDA         FAIR      54  47  78 W3        30.53S
SUNLIGHT       MOCLDY    50  37  62 W7        30.63F
WILKERSON PASS FAIR      43  39  87 W5        30.67F
$$

COZ069>075-310900-
...SAN LUIS VALLEY/SANGRE DE CRISTO MOUNTAINS...

CITY           SKY/WX    TMP DP  RH WIND       PRES   REMARKS
ALAMOSA        MOCLDY    55  47  74 SW6       30.42F
LA VETA PASS   FAIR      45  41  87 MISG      30.58S
SAGUACHE       FAIR      50  45  81 NW8       30.45F
$$

COZ035-036-038>040-310900-
...NORTHERN COLORADO FRONT RANGE...

CITY           SKY/WX    TMP DP  RH WIND       PRES   REMARKS
DENVER INTL AP FAIR      55  51  86 S7        30.30F
DMNS CITY PARK   N/A     58  57  95 E9        30.30S
AURORA         PTCLDY    55  53  93 S5        30.32F
FRONT RANGE AP NOT AVBL
ERIE MUNI ARPT FAIR      56  50  81 CALM      30.29F
BOULDER MUN AP FAIR      61  50  67 CALM      30.30S
CENTENNIAL     FAIR      58  52  80 W3        30.32F
BROOMFIELD     FAIR      59  52  77 CALM      30.32F
FORT COLLINS   NOT AVBL
LONGMONT       FAIR      61  55  82 CALM      30.32S
$$

COZ041-046-047-076>085-087-088-310900-
...PIKES PEAK/PALMER DIVIDE AND SOUTHERN FOOTHILLS...

CITY           SKY/WX    TMP DP  RH WIND       PRES   REMARKS
COLO. SPRINGS  FAIR      57  51  80 CALM      30.36F
A. F. ACADEMY  FAIR      53  51  93 N7        30.36F
SCHRIEVER AFB  NOT AVBL
ELLICOTT       NOT AVBL
FALCON         FAIR      54  52  92 CALM      30.40S
FORT CARSON    FAIR      56  50  80 N5        30.32F
LIMON          FAIR      51  49  92 N6        30.32F
MONUMENT HILL  FAIR      50  50 100 W7        30.40F
TRINIDAD       FAIR      56  50  80 NW7       30.33S
$$

COZ042>045-048>051-090-091-310900-
...NORTHEAST COLORADO...

CITY           SKY/WX    TMP DP  RH WIND       PRES   REMARKS
GREELEY ARPT   FAIR      57  54  88 N7        30.28F
AKRON          CLOUDY    58  57  97 SE6       30.28F FOG
BURLINGTON     MOCLDY    57  54  89 CALM      30.27S
WRAY           CLOUDY   N/A N/A N/A E3        30.25S HAZE
STERLING       CLOUDY    63  61  94 CALM      30.26S
HOLYOKE        HVY RAIN  64  63  94 CALM      30.27S VSB 1
FORT MORGAN    FOG       56  55  94 NE5       30.28F VSB 1/4
$$

COZ086-089-092>099-310900-
...SOUTHEAST COLORADO...

CITY           SKY/WX    TMP DP  RH WIND       PRES   REMARKS
PUEBLO         FAIR      59  53  80 NW5       30.27F
LA JUNTA       FAIR      61  56  83 CALM      30.24F
LAMAR          FAIR      59  57  93 CALM      30.22R
SPRINGFIELD      N/A     62  61  96 S6        30.26F
$$



USA.gov is the U.S. government's official web portal to all federal, state and local government web resources and services.